Flag for U.S.A. Weather past 2 weeks in Jackson, Mississippi, U.S.A.

Now
27 °F

Clear.


Feels Like: 20 °F
Forecast: 22 / 47 °F
Wind: 6 mph from North

Location: Hawkins Field

Current Time: Mar 5, 2015 at 9:27:09 PM

Latest Report: Mar 5, 2015 at 8:53 PM


Visibility: 10 mi

Pressure: 30.52 "Hg

Humidity: 69%

Dew point: 18 °F

Location of JacksonLocation

Historic Weather in Jackson — Graph

°F

Jackson temperature yesterday

Maximum temperature yesterday: 81 °F (at 1:53 PM)
Minimum temperature yesterday: 41 °F (at 11:53 PM)
Average temperature yesterday: 67 °F

Past Weeks' High & Low Weather Summary

 TemperatureHumidityPressure
High81 °F (Mar 4, 1:53 PM)100% (Mar 2, 4:53 AM)30.50 "Hg (Mar 2, 4:53 AM)
Low24 °F (Feb 19, 5:53 AM)23% (Feb 19, 3:53 PM)29.75 "Hg (Feb 25, 3:53 PM)
Average45 °F77%30.19 "Hg
* Reported Feb 18 7:53 PM — Mar 5 7:53 PM, Jackson, Weather by CustomWeather, © 2015

Note: Actual official high and low records may vary slightly from our data, if they occured in-between our weather recording intervals... More about our weather records

Advertising

Jackson weather history for previous 24 hours

 ConditionsComfort  
Time TempWeatherWind HumidityBarometerVisibility
7:53 PM
Thu, Mar 5
28 °FClear.9 mph69%30.50 "Hg10 mi
6:53 PM29 °FClear.7 mph72%30.48 "Hg10 mi
5:53 PM31 °FSunny.7 mph69%30.46 "Hg10 mi
4:53 PM32 °FSunny.7 mph73%30.44 "Hg10 mi
3:53 PM32 °FPassing clouds.15 mph66%30.43 "Hg10 mi
2:53 PM30 °FPartly sunny.17 mph72%30.41 "Hg10 mi
1:53 PM29 °FBroken clouds.12 mph79%30.40 "Hg10 mi
12:53 PM28 °FMostly cloudy.13 mph85%30.41 "Hg10 mi
11:53 AM28 °FOvercast.10 mph81%30.42 "Hg10 mi
11:01 AM28 °FLight snow. Ice fog.15 mph89%30.40 "Hg1 mi
9:53 AM28 °FLight snow. Ice fog.14 mph85%30.37 "Hg4 mi
8:53 AM30 °FLight snow. Ice fog.9 mph89%30.31 "Hg4 mi
8:04 AM32 °FLight snow. Ice fog.9 mph88%30.28 "Hg2 mi
7:53 AM32 °FLight freezing rain. Ice fog.10 mph92%30.25 "Hg4 mi
5:53 AM32 °FFreezing rain. Ice fog.12 mph92%30.20 "Hg3 mi
5:04 AM32 °FLight snow. Ice fog.10 mph88%30.17 "Hg5 mi
4:53 AM32 °FLight snow. Ice fog.13 mph88%30.13 "Hg2 mi
3:53 AM36 °FLight rain. Fog.14 mph89%30.05 "Hg3 mi
2:53 AM38 °FLight rain. Mostly cloudy.9 mph90%30.02 "Hg7 mi
1:53 AM39 °FLight rain. Fog.12 mph89%30.01 "Hg3 mi
12:53 AM41 °FLight rain. Fog.8 mph93%29.99 "Hg4 mi
11:53 PM
Wed, Mar 4
41 °FLow clouds.12 mph93%30.01 "Hg10 mi
10:53 PM44 °FLow clouds.9 mph93%29.98 "Hg10 mi
9:53 PM45 °FLight rain. Mostly cloudy.8 mph90%29.96 "Hg8 mi
Weather by CustomWeather, © 2015

See weather overviewHow to use our weather pages